Location: Kawakawa
(35.3830°S, 174.0670°E)
Time: 00:06:01
(UTC+13:00)

Explorer 7 - Pass Details

Date: 12 December 2019
Orbit: 485 x 679 km, 50.3° (Epoch: 25 January)

Event Time Altitude Azimuth Distance (km) Brightness Sun altitude
Rises 11:26:35 0° 232° (SW) 2,612 10.0 63.0°
Reaches altitude 10° 11:28:44 10° 233° (SW) 1,741 9.2 63.5°
Maximum altitude 11:32:41 77° 318° (NW) 547 8.0 64.2°
Drops below altitude 10° 11:36:48 10° 44° (NE) 1,820 10.0 65.0°
Sets 11:39:06 0° 45° (NE) 2,743 10.7 65.4°
